sat.trackr.live / text

‹ back to catalog

STARLINK-34708

NORAD 65062 · 2025-165G

PAYLOAD ACTIVE UNKNOWN

§ Identity

Operator
Country
US
Launch date
2025-07-31
Launch site
AFWTR
Launch vehicle
Mass (kg)
RCS (m²)

Purposes: comms

External: N2YO · Heavens-Above · Gunter

§ Orbital elements

Epoch: 2026-09-20T22:45:34.072992Z

Period
93.90 min
Inclination
97.2844°
Eccentricity
0.0001827
Mean motion
15.33468359 rev/d
Perigee alt
464.2 km
Apogee alt
466.7 km
Semi-major
6,843.6 km
B*
6.2772e-4
RAAN
335.1542°
Arg perigee
86.8879°
Mean anomaly
273.2573°
Rev number
6,419

§ Raw data

STARLINK-347081 65062U 25165G   26263.94831103  .00020260  00000+0  62772-3 0  99922 65062  97.2844 335.1542 0001827  86.8879 273.2573 15.33468359 64198

JSON: /api/v1/satellites/65062 · /tle

For live sub-satellite position, see the globe view (requires WebGL).

§ Visibility from observer

Set your observer location to see the next 7 days of passes ≥ 10°. The values pass through the URL so the page stays shareable.

No JS? Fill the form by hand. The geolocation button needs JavaScript.